Location: Home
(42.5358°N, 72.7383°W)
Time: 23:54:30
(UTC-05:00)

TIGRISAT - Visible Passes

Search period start: 24 January 2022 00:00
Search period end: 03 February 2022 00:00
Orbit: 605 x 687 km, 97.7° (Epoch: 24 January)

Date Brightness Start Highest point End Pass type
(mag) Time Alt. Az. Time Alt. Az. Time Alt. Az.
24 Jan ? 04:39:55 10° ESE 04:43:07 19° ENE 04:46:21 10° NNE visible
24 Jan ? 06:14:56 10° S 06:19:22 49° W 06:23:56 10° NNW visible
24 Jan ? 18:05:29 10° NNE 18:09:43 34° E 18:13:51 10° SSE visible
24 Jan ? 19:42:28 10° NNW 19:46:11 25° WNW 19:49:54 10° WSW visible
25 Jan ? 05:04:08 10° SE 05:08:12 32° ENE 05:12:21 10° N visible
25 Jan ? 06:40:56 10° SSW 06:44:50 27° W 06:48:49 10° NW visible
25 Jan ? 18:30:32 10° NNE 18:35:09 64° E 18:39:38 10° S visible
25 Jan ? 20:08:42 10° NNW 20:11:14 15° WNW 20:13:44 10° W visible
26 Jan ? 05:28:53 10° SSE 05:33:23 57° ENE 05:37:59 10° N visible
26 Jan ? 18:55:50 10° N 19:00:28 70° WNW 19:04:57 10° SSW visible
27 Jan ? 04:20:48 10° E 04:22:42 12° ENE 04:24:37 10° NE visible
27 Jan ? 05:54:03 10° S 05:58:40 80° WSW 06:03:23 10° NNW visible
27 Jan ? 17:45:21 10° NE 17:48:53 22° E 17:52:21 10° SE visible
27 Jan ? 19:21:24 10° N 19:25:41 38° WNW 19:29:50 10° SW visible
28 Jan ? 04:44:15 10° ESE 04:47:43 21° ENE 04:51:12 10° NNE visible
28 Jan ? 06:19:39 10° S 06:24:03 43° W 06:28:32 10° NNW visible
28 Jan ? 18:10:05 10° NNE 18:14:23 38° E 18:18:34 10° SSE visible
28 Jan ? 19:47:15 10° NNW 19:50:47 22° WNW 19:54:15 10° WSW visible
29 Jan ? 05:08:36 10° SE 05:12:49 36° ENE 05:17:06 10° N visible
29 Jan ? 18:35:11 10° NNE 18:39:47 72° ESE 18:44:15 10° S visible
29 Jan ? 20:13:45 10° NW 20:15:47 13° WNW 20:17:50 10° W visible
30 Jan ? 05:33:25 10° SSE 05:38:01 64° ENE 05:42:41 10° N visible
30 Jan ? 19:00:32 10° N 19:05:04 61° WNW 19:09:28 10° SSW visible
31 Jan ? 04:24:53 10° E 04:27:17 14° ENE 04:29:40 10° NNE visible
31 Jan ? 05:58:41 10° S 06:03:19 71° WSW 06:08:02 10° NNW visible
31 Jan ? 17:49:51 10° NE 17:53:33 24° E 17:57:10 10° SSE visible
31 Jan ? 19:26:09 10° N 19:30:16 34° WNW 19:34:16 10° SW visible
01 Feb ? 04:48:37 10° ESE 04:52:18 24° ENE 04:56:01 10° NNE visible
01 Feb ? 06:24:22 10° SSW 06:28:43 38° W 06:33:06 10° NNW visible
01 Feb ? 18:14:40 10° NNE 18:19:02 43° E 18:23:15 10° S visible
01 Feb ? 19:52:05 10° NNW 19:55:20 20° WNW 19:58:33 10° WSW visible
02 Feb ? 05:13:04 10° SE 05:17:25 40° ENE 05:21:49 10° N visible
02 Feb ? 18:39:49 10° NNE 18:44:24 82° ESE 18:48:49 10° S visible
02 Feb ? 20:18:57 10° NW 20:20:20 11° WNW 20:21:42 10° WNW visible
